| time (UTC) | temp F | wind direction | speed MPH | gust MPH | rain 1hr in | rain 24hr in | rain mn in | humidity % | barometer mb |
| 20260906095156 | 91 | 338 | 16.0 | 22.0 | 0.00 | 0.00 | 0.00 | 25 | 1013.1 |
| 20260906093654 | 91 | 0 | 17.0 | 23.0 | 0.00 | 0.00 | 0.00 | 26 | 1013.0 |
| 20260906092152 | 91 | 45 | 15.0 | 22.0 | 0.00 | 0.00 | 0.00 | 28 | 1013.0 |
| 20260906090650 | 91 | 45 | 23.0 | 27.0 | 0.00 | 0.00 | 0.00 | 28 | 1012.9 |
| 20260906085148 | 90 | 90 | 18.0 | 26.0 | 0.00 | 0.00 | 0.00 | 30 | 1013.0 |
| 20260906083806 | 92 | 0 | 14.0 | 23.0 | 0.00 | 0.00 | 0.00 | 22 | 1012.9 |
| 20260906082143 | 91 | 0 | 11.0 | 30.0 | 0.00 | 0.00 | 0.00 | 21 | 1012.9 |
| 20260906080642 | 91 | 45 | 11.0 | 20.0 | 0.00 | 0.00 | 0.00 | 21 | 1013.0 |
| 20260906075139 | 91 | 45 | 11.0 | 20.0 | 0.00 | 0.00 | 0.00 | 20 | 1012.9 |
| 20260906073637 | 91 | 0 | 11.0 | 19.0 | 0.00 | 0.00 | 0.00 | 20 | 1013.0 |
| 20260906072135 | 90 | 45 | 11.0 | 23.0 | 0.00 | 0.00 | 0.00 | 23 | 1012.8 |
| 20260906070633 | 89 | 45 | 14.0 | 17.0 | 0.00 | 0.00 | 0.00 | 23 | 1012.7 |
| 20260906065131 | 89 | 45 | 10.0 | 19.0 | 0.00 | 0.00 | 0.00 | 25 | 1012.9 |
| 20260906063629 | 88 | 315 | 9.0 | 18.0 | 0.00 | 0.00 | 0.00 | 25 | 1012.9 |
| 20260906062127 | 87 | 0 | 11.0 | 21.0 | 0.00 | 0.00 | 0.00 | 26 | 1012.5 |
| 20260906060624 | 87 | 0 | 8.0 | 22.0 | 0.00 | 0.00 | 0.00 | 26 | 1012.5 |
| 20260906055122 | 87 | 0 | 15.0 | 21.0 | 0.00 | 0.00 | 0.00 | 25 | 1012.3 |
| 20260906053619 | 86 | 0 | 15.0 | 21.0 | 0.00 | 0.00 | 0.00 | 26 | 1012.0 |
| 20260906052118 | 85 | 45 | 12.0 | 21.0 | 0.00 | 0.00 | 0.00 | 27 | 1012.0 |
| 20260906050615 | 85 | 90 | 10.0 | 20.0 | 0.00 | 0.00 | 0.00 | 29 | 1013.4 |
| 20260906045113 | 84 | 90 | 11.0 | 21.0 | 0.00 | 0.00 | 0.00 | 28 | 1011.8 |
| 20260906043611 | 83 | 45 | 11.0 | 19.0 | 0.00 | 0.00 | 0.00 | 30 | 1011.8 |
| 20260906042109 | 83 | 0 | 12.0 | 20.0 | 0.00 | 0.00 | 0.00 | 30 | 1011.5 |
| 20260906040607 | 82 | 0 | 16.0 | 21.0 | 0.00 | 0.00 | 0.00 | 31 | 1011.6 |
| 20260906035104 | 82 | 0 | 11.0 | 19.0 | 0.00 | 0.00 | 0.00 | 31 | 1011.3 |
| 20260906033602 | 82 | 315 | 11.0 | 20.0 | 0.00 | 0.00 | 0.00 | 31 | 1011.3 |
| 20260906032100 | 82 | 45 | 13.0 | 21.0 | 0.00 | 0.00 | 0.00 | 30 | 1011.4 |
| 20260906030558 | 82 | 315 | 11.0 | 18.0 | 0.00 | 0.00 | 0.00 | 30 | 1011.2 |
| 20260906025056 | 82 | 0 | 12.0 | 23.0 | 0.00 | 0.00 | 0.00 | 30 | 1011.1 |
| 20260906023553 | 82 | 45 | 13.0 | 20.0 | 0.00 | 0.00 | 0.00 | 30 | 1011.2 |
| 20260906022054 | 82 | 0 | 11.0 | 21.0 | 0.00 | 0.00 | 0.00 | 30 | 1011.2 |
| 20260906020549 | 82 | 45 | 11.0 | 17.0 | 0.00 | 0.00 | 0.00 | 30 | 1011.3 |
| 20260906015048 | 82 | 315 | 11.0 | 21.0 | 0.00 | 0.00 | 0.00 | 30 | 1011.5 |
| 20260906013545 | 82 | 315 | 8.0 | 21.0 | 0.00 | 0.00 | 0.00 | 31 | 1011.6 |
| 20260906012043 | 82 | 45 | 12.0 | 17.0 | 0.00 | 0.00 | 0.00 | 30 | 1011.5 |
| 20260906010541 | 82 | 0 | 11.0 | 18.0 | 0.00 | 0.00 | 0.00 | 31 | 1011.5 |
| 20260906005039 | 82 | 0 | 12.0 | 25.0 | 0.00 | 0.00 | 0.00 | 31 | 1011.5 |
| 20260906003538 | 82 | 0 | 17.0 | 21.0 | 0.00 | 0.00 | 0.00 | 31 | 1011.6 |
| 20260906002035 | 82 | 45 | 14.0 | 18.0 | 0.00 | 0.00 | 0.00 | 30 | 1011.5 |
| 20260906000533 | 82 | 0 | 13.0 | 19.0 | 0.00 | 0.00 | 0.00 | 32 | 1011.5 |
| 20260905235030 | 82 | 45 | 10.0 | 17.0 | 0.00 | 0.00 | 0.00 | 32 | 1011.8 |
| 20260905233528 | 82 | 0 | 9.0 | 21.0 | 0.00 | 0.00 | 0.00 | 32 | 1011.9 |
| 20260905232026 | 82 | 45 | 9.0 | 19.0 | 0.00 | 0.00 | 0.00 | 32 | 1012.1 |
| 20260905230524 | 82 | 45 | 8.0 | 18.0 | 0.00 | 0.00 | 0.00 | 33 | 1011.9 |
| 20260905225021 | 82 | 0 | 10.0 | 16.0 | 0.00 | 0.00 | 0.00 | 33 | 1012.1 |
| 20260905223519 | 82 | 45 | 8.0 | 17.0 | 0.00 | 0.00 | 0.00 | 34 | 1012.1 |
| 20260905222018 | 82 | 45 | 12.0 | 17.0 | 0.00 | 0.00 | 0.00 | 34 | 1012.1 |
| 20260905220515 | 82 | 45 | 8.0 | 19.0 | 0.00 | 0.00 | 0.00 | 38 | 1012.1 |
| 20260905215013 | 82 | 0 | 8.0 | 23.0 | 0.00 | 0.00 | 0.00 | 36 | 1012.0 |
| 20260905213512 | 81 | 0 | 12.0 | 19.0 | 0.00 | 0.00 | 0.00 | 42 | 1011.9 |
| 20260905212009 | 81 | 45 | 11.0 | 17.0 | 0.00 | 0.00 | 0.00 | 44 | 1012.1 |
| 20260905210507 | 81 | 338 | 11.0 | 16.0 | 0.00 | 0.00 | 0.00 | 44 | 1012.3 |
| 20260905205004 | 81 | 45 | 10.0 | 17.0 | 0.00 | 0.00 | 0.00 | 46 | 1012.2 |
| 20260905203502 | 80 | 90 | 9.0 | 16.0 | 0.00 | 0.00 | 0.00 | 49 | 1012.3 |
| 20260905202000 | 80 | 0 | 11.0 | 16.0 | 0.00 | 0.00 | 0.00 | 50 | 1012.3 |
| 20260905200458 | 80 | 45 | 8.0 | 14.0 | 0.00 | 0.00 | 0.00 | 50 | 1012.4 |
| 20260905194956 | 80 | 0 | 8.0 | 15.0 | 0.00 | 0.00 | 0.00 | 50 | 1012.5 |
| 20260905193454 | 81 | 45 | 9.0 | 15.0 | 0.00 | 0.00 | 0.00 | 50 | 1012.5 |
| 20260905191954 | 81 | 0 | 10.0 | 13.0 | 0.00 | 0.00 | 0.00 | 50 | 1012.7 |
| 20260905190450 | 81 | 45 | 6.0 | 12.0 | 0.00 | 0.00 | 0.00 | 46 | 1012.9 |
| 20260905183447 | 81 | 0 | 7.0 | 16.0 | 0.00 | 0.00 | 0.00 | 48 | 1012.6 |
| 20260905181944 | 81 | 45 | 12.0 | 21.0 | 0.00 | 0.00 | 0.00 | 51 | 1012.4 |
| 20260905180444 | 82 | 315 | 10.0 | 19.0 | 0.00 | 0.00 | 0.00 | 41 | 1012.3 |
| 20260905174938 | 82 | 0 | 14.0 | 26.0 | 0.00 | 0.00 | 0.00 | 42 | 1012.1 |
| 20260905173439 | 82 | 0 | 10.0 | 15.0 | 0.00 | 0.00 | 0.00 | 42 | 1012.1 |
| 20260905171939 | 82 | 0 | 4.0 | 12.0 | 0.00 | 0.00 | 0.00 | 41 | 1011.8 |
| 20260905154927 | 86 | 0 | 9.0 | 17.0 | 0.00 | 0.00 | 0.00 | 40 | 1011.6 |
| 20260905141435 | 88 | 45 | 8.0 | 19.0 | 0.00 | 0.00 | 0.00 | 42 | 1011.1 |
| 20260905135946 | 89 | 45 | 8.0 | 19.0 | 0.00 | 0.00 | 0.00 | 41 | 1010.9 |
| 20260905134440 | 89 | 45 | 8.0 | 19.0 | 0.00 | 0.00 | 0.00 | 42 | 1011.0 |
| 20260905131426 | 89 | 90 | 8.0 | 16.0 | 0.00 | 0.00 | 0.00 | 42 | 1010.8 |
| 20260905125931 | 89 | 45 | 12.0 | 23.0 | 0.00 | 0.00 | 0.00 | 42 | 1010.7 |
| 20260905124425 | 89 | 0 | 11.0 | 22.0 | 0.00 | 0.00 | 0.00 | 41 | 1010.7 |
| 20260905122921 | 90 | 293 | 10.0 | 22.0 | 0.00 | 0.00 | 0.00 | 41 | 1010.9 |
| 20260905121417 | 89 | 45 | 13.0 | 22.0 | 0.00 | 0.00 | 0.00 | 41 | 1010.9 |
| 20260905115916 | 89 | 45 | 11.0 | 21.0 | 0.00 | 0.00 | 0.00 | 41 | 1010.8 |
| 20260905114413 | 89 | 0 | 11.0 | 25.0 | 0.00 | 0.00 | 0.00 | 41 | 1011.0 |
| 20260905112911 | 90 | 315 | 12.0 | 23.0 | 0.00 | 0.00 | 0.00 | 42 | 1010.9 |
| 20260905111408 | 89 | 45 | 13.0 | 19.0 | 0.00 | 0.00 | 0.00 | 42 | 1010.9 |
| 20260905105906 | 90 | 0 | 12.0 | 21.0 | 0.00 | 0.00 | 0.00 | 42 | 1010.9 |
| 20260905104405 | 89 | 45 | 9.0 | 22.0 | 0.00 | 0.00 | 0.00 | 43 | 1010.6 |
| 20260905102903 | 89 | 0 | 13.0 | 21.0 | 0.00 | 0.00 | 0.00 | 42 | 1010.8 |
| 20260905101400 | 88 | 45 | 14.0 | 20.0 | 0.00 | 0.00 | 0.00 | 42 | 1010.9 |
| 20260905095859 | 89 | 0 | 12.0 | 17.0 | 0.00 | 0.00 | 0.00 | 42 | 1010.9 |